Total_Precipitation_Accumulation
0.63 0.77 0.83 0.78 0.78 0.83 0.89 0.93 0.98 0.94 0.93 0.90 0.80 0.74 0.72 0.70 0.63 0.54 0.41 0.38 0.37 0.34 0.33 0.32 0.32 0.36 0.38 0.41 0.44 0.49 0.54 0.60 0.68 0.80 0.97 1.15 1.28 1.43
0.80 0.89 0.93 0.95 0.94 0.87 0.91 0.96 0.98 1.04 1.00 0.85 0.78 0.79 0.71 0.55 0.52 0.47 0.40 0.42 0.39 0.35 0.33 0.30 0.29 0.32 0.34 0.34 0.30 0.31 0.33 0.35 0.38 0.42 0.51 0.64 0.77 0.95
0.93 1.03 1.07 1.12 1.12 1.01 0.96 0.94 0.94 1.02 0.97 0.83 0.77 0.79 0.68 0.52 0.46 0.43 0.41 0.40 0.36 0.37 0.33 0.29 0.28 0.27 0.31 0.31 0.29 0.27 0.26 0.26 0.27 0.29 0.33 0.37 0.41 0.48
0.96 1.12 1.20 1.17 1.08 1.02 1.02 0.98 0.96 1.04 0.99 0.91 0.88 0.83 0.75 0.65 0.56 0.50 0.43 0.39 0.37 0.39 0.35 0.30 0.28 0.26 0.25 0.25 0.25 0.23 0.23 0.23 0.23 0.23 0.25 0.27 0.28 0.29
0.97 1.02 1.05 1.12 1.10 1.02 0.97 0.94 0.93 1.04 1.03 0.94 1.01 1.00 0.89 0.78 0.64 0.54 0.46 0.44 0.39 0.37 0.37 0.34 0.32 0.27 0.25 0.23 0.23 0.22 0.20 0.19 0.20 0.21 0.22 0.24 0.25 0.24
0.84 0.89 0.92 0.96 1.02 1.07 1.01 0.96 0.98 1.00 1.01 1.00 1.05 1.18 1.08 0.92 0.74 0.61 0.52 0.48 0.44 0.34 0.35 0.38 0.36 0.31 0.27 0.24 0.22 0.20 0.20 0.18 0.18 0.19 0.17 0.18 0.24 0.28
0.56 0.58 0.69 0.85 0.95 1.01 0.96 0.94 0.98 0.99 0.98 1.03 1.07 1.21 1.23 1.06 0.83 0.63 0.55 0.53 0.51 0.45 0.38 0.32 0.30 0.26 0.24 0.25 0.24 0.21 0.17 0.17 0.17 0.16 0.15 0.17 0.21 0.31
0.38 0.37 0.38 0.51 0.69 0.81 0.84 0.84 0.89 0.94 0.98 1.00 1.07 1.16 1.22 1.11 0.93 0.79 0.65 0.54 0.52 0.52 0.51 0.47 0.36 0.31 0.25 0.21 0.22 0.23 0.21 0.17 0.15 0.14 0.14 0.15 0.17 0.26
0.33 0.33 0.26 0.25 0.39 0.54 0.65 0.70 0.72 0.72 0.80 0.95 1.06 1.08 1.18 1.21 1.12 0.93 0.81 0.69 0.56 0.54 0.56 0.59 0.52 0.41 0.31 0.28 0.30 0.25 0.24 0.23 0.20 0.19 0.16 0.14 0.13 0.16
0.32 0.32 0.31 0.31 0.34 0.40 0.51 0.60 0.64 0.62 0.60 0.68 0.85 1.04 1.19 1.33 1.28 1.18 1.08 0.95 0.79 0.69 0.64 0.63 0.60 0.51 0.42 0.34 0.34 0.29 0.26 0.24 0.23 0.26 0.33 0.34 0.23 0.19
0.32 0.33 0.34 0.32 0.30 0.26 0.35 0.42 0.48 0.57 0.57 0.59 0.71 0.93 1.12 1.26 1.40 1.33 1.20 1.01 0.84 0.73 0.64 0.56 0.55 0.56 0.52 0.42 0.35 0.34 0.29 0.27 0.25 0.27 0.39 0.62 0.68 0.51
0.44 0.44 0.35 0.29 0.23 0.18 0.26 0.35 0.39 0.42 0.51 0.56 0.63 0.76 0.93 1.05 1.18 1.18 1.03 0.93 0.79 0.68 0.57 0.48 0.45 0.48 0.54 0.50 0.41 0.34 0.30 0.30 0.30 0.33 0.47 0.79 0.91 0.78
0.49 0.48 0.45 0.30 0.21 0.17 0.19 0.29 0.32 0.39 0.48 0.54 0.64 0.78 0.94 1.07 1.06 1.05 0.99 0.83 0.73 0.58 0.45 0.45 0.43 0.39 0.37 0.40 0.39 0.38 0.33 0.28 0.26 0.29 0.39 0.65 0.89 0.86
0.63 0.59 0.55 0.39 0.26 0.22 0.19 0.20 0.22 0.27 0.43 0.50 0.56 0.68 0.82 0.96 1.05 1.07 1.04 0.90 0.74 0.65 0.56 0.50 0.44 0.40 0.32 0.29 0.32 0.35 0.38 0.36 0.31 0.27 0.27 0.42 0.58 0.83
0.72 0.72 0.60 0.47 0.37 0.29 0.27 0.25 0.23 0.24 0.37 0.46 0.47 0.52 0.60 0.74 1.02 1.22 1.30 1.19 0.96 0.75 0.68 0.58 0.48 0.43 0.40 0.31 0.28 0.28 0.33 0.38 0.36 0.33 0.32 0.31 0.41 0.58
0.71 0.75 0.65 0.60 0.52 0.44 0.40 0.36 0.31 0.29 0.33 0.42 0.47 0.54 0.65 0.78 0.96 1.15 1.31 1.30 1.13 0.85 0.69 0.62 0.53 0.46 0.44 0.39 0.31 0.27 0.24 0.28 0.33 0.33 0.35 0.38 0.45 0.52
0.83 0.95 0.90 0.82 0.76 0.68 0.61 0.56 0.51 0.45 0.40 0.44 0.57 0.63 0.72 0.76 0.85 0.98 1.15 1.22 1.08 0.82 0.65 0.61 0.60 0.54 0.50 0.46 0.38 0.30 0.25 0.22 0.24 0.27 0.29 0.34 0.42 0.45
0.85 1.02 0.98 0.90 0.87 0.84 0.80 0.74 0.68 0.61 0.55 0.53 0.58 0.66 0.70 0.74 0.80 0.89 0.98 1.05 1.01 0.86 0.69 0.56 0.54 0.53 0.50 0.50 0.43 0.32 0.25 0.23 0.22 0.25 0.26 0.26 0.30 0.34
0.73 0.90 0.89 0.87 0.87 0.91 0.88 0.79 0.71 0.70 0.71 0.68 0.64 0.67 0.72 0.74 0.76 0.84 0.87 0.94 0.98 0.95 0.82 0.64 0.52 0.45 0.40 0.36 0.33 0.30 0.25 0.21 0.23 0.25 0.26 0.24 0.23 0.23
0.66 0.78 0.81 0.82 0.84 0.88 0.85 0.83 0.80 0.81 0.81 0.76 0.71 0.71 0.75 0.75 0.73 0.75 0.80 0.80 0.86 0.92 0.91 0.73 0.53 0.41 0.33 0.27 0.24 0.24 0.23 0.22 0.21 0.23 0.25 0.25 0.26 0.27
0.71 0.75 0.78 0.77 0.78 0.84 0.85 0.85 0.84 0.85 0.83 0.81 0.79 0.76 0.77 0.79 0.73 0.70 0.75 0.81 0.80 0.81 0.79 0.69 0.55 0.55 0.49 0.41 0.34 0.30 0.26 0.24 0.26 0.24 0.25 0.26 0.25 0.26
0.73 0.70 0.74 0.77 0.78 0.80 0.82 0.82 0.84 0.87 0.84 0.80 0.82 0.81 0.79 0.78 0.73 0.71 0.71 0.74 0.70 0.68 0.71 0.75 0.77 0.72 0.60 0.46 0.36 0.33 0.32 0.28 0.28 0.34 0.30 0.25 0.19 0.17
0.70 0.68 0.68 0.68 0.69 0.72 0.74 0.75 0.80 0.82 0.79 0.76 0.78 0.81 0.79 0.77 0.73 0.72 0.70 0.70 0.72 0.75 0.81 0.88 0.91 0.79 0.64 0.52 0.41 0.37 0.38 0.34 0.26 0.25 0.25 0.24 0.21 0.16